GFSMW_sfc_dewp_153.txt.gz
Dewpoint
41 41 40 41 40 41 42 43 44 44 41 40 39 38 36 35 34 34 36 37 37 37 37 36 36 36 36 36 37 36 37 37 38 40 39 40 47 50 52 54 49 48 45
39 40 40 39 39 39 40 41 42 42 41 40 38 37 35 34 34 34 35 35 36 36 34 35 35 35 34 36 36 36 35 35 37 39 39 40 41 41 46 47 45 44 42
39 39 39 38 38 38 39 39 40 40 41 40 37 35 35 34 33 32 32 33 34 34 34 34 34 34 34 34 35 35 35 34 35 38 37 36 35 35 42 43 42 41 40
39 39 38 37 37 37 38 37 38 38 38 38 36 36 32 31 32 32 31 32 33 32 33 33 33 34 34 34 33 32 33 34 32 34 34 36 36 35 34 38 39 38 36
39 39 38 36 36 37 36 36 36 36 37 37 36 34 33 33 32 31 32 32 32 31 31 32 33 33 33 32 32 32 31 32 30 30 31 32 33 34 34 33 34 33 34
39 39 37 37 36 35 35 36 35 34 35 35 35 35 34 32 31 31 30 30 30 29 30 31 32 31 30 30 30 30 30 29 29 29 29 29 29 28 29 29 29 29 30
39 37 36 35 36 35 35 35 34 33 34 34 33 33 32 32 32 30 30 29 29 27 28 30 30 28 28 28 28 28 27 27 27 27 26 26 26 26 26 26 26 26 28
39 38 36 36 36 35 34 33 33 33 32 33 32 32 32 30 30 30 30 28 27 25 27 28 29 29 27 27 27 26 25 26 25 25 25 25 26 27 27 26 27 26 27
38 37 36 36 36 35 34 34 33 32 32 32 32 32 31 31 30 30 28 27 27 22 26 27 28 28 26 25 25 24 24 24 25 25 26 25 26 27 27 27 27 26 24
38 38 37 37 36 36 36 36 34 33 33 32 32 31 31 30 30 29 26 25 23 23 24 24 25 21 21 22 22 22 23 23 23 23 25 25 25 26 27 25 26 25 24
39 39 38 37 36 36 35 34 34 33 33 32 32 31 30 29 29 27 24 23 22 23 23 23 21 18 18 18 18 18 19 21 21 22 22 23 24 23 25 25 25 24 24
39 39 38 36 36 36 35 34 34 33 33 33 31 31 29 27 27 26 23 22 21 23 23 20 21 20 19 18 18 18 18 18 19 20 20 20 20 22 23 23 22 22 23
39 39 37 36 36 36 35 35 34 34 33 32 30 30 28 27 25 25 22 21 21 22 23 20 18 17 18 18 18 18 17 18 18 19 20 19 20 21 22 21 21 21 20
40 39 37 37 37 37 36 36 36 34 33 30 29 28 27 25 24 24 22 21 21 21 22 23 20 19 17 17 16 16 16 16 17 19 19 20 20 21 22 20 20 19 19
34 39 38 37 37 37 37 37 35 34 31 29 29 29 27 26 25 24 23 22 21 21 22 21 20 19 18 18 18 16 16 15 16 17 18 20 19 20 20 20 21 20 19
31 39 38 37 36 37 37 35 34 33 31 30 30 30 27 26 25 24 23 22 21 22 23 22 21 20 17 20 21 19 19 18 18 18 19 19 19 16 17 18 18 20 20
40 41 38 37 38 37 35 34 33 32 30 31 30 30 27 24 23 23 22 22 22 23 22 22 23 23 23 20 20 19 21 21 21 20 20 20 21 17 15 14 14 16 17
40 41 39 39 39 37 35 34 32 31 30 29 28 28 25 21 22 20 19 20 21 21 21 21 23 25 25 20 19 17 20 20 20 21 20 19 20 18 15 14 13 13 15
34 36 39 39 37 36 34 32 31 30 28 27 27 25 23 21 19 18 19 21 21 20 20 20 21 23 24 20 17 18 19 19 18 19 21 18 17 16 15 12 11 12 12
32 33 34 36 35 34 32 31 29 28 26 26 26 23 22 20 18 20 19 19 20 20 21 20 19 21 23 19 17 18 19 16 17 17 18 15 15 14 13 13 12 9 10
33 34 34 33 33 32 31 29 28 27 27 27 26 25 23 20 20 20 20 19 19 19 18 19 19 20 23 21 16 15 17 16 15 15 16 16 13 13 13 12 11 9 9
32 31 31 31 32 31 30 28 27 27 27 26 25 25 24 23 22 20 18 18 18 17 17 18 20 21 22 17 16 15 14 13 14 13 14 13 11 12 12 11 10 9 7
30 30 29 29 29 29 28 27 25 27 26 25 25 25 26 24 23 20 18 17 17 16 17 17 17 18 19 20 15 13 13 12 13 14 10 8 7 7 9 9 8 7 9
29 28 28 27 27 27 29 28 27 27 24 24 24 24 25 25 23 21 19 18 16 16 16 16 16 17 17 16 15 14 12 9 9 6 7 6 6 3 3 5 6 7 7
27 27 27 26 26 27 28 27 27 26 23 22 22 23 24 22 22 21 19 16 18 16 17 18 18 18 17 17 13 11 11 10 7 7 8 7 6 5 4 4 2 3 3
27 26 26 26 26 26 26 27 27 25 24 21 24 24 22 21 19 18 18 15 14 15 15 16 17 19 16 18 14 11 9 7 4 5 5 5 6 3 1 1 0 -0 -1

GFSMW_sfc_dewp_159.txt.gz
Dewpoint
42 47 48 47 46 49 51 50 51 51 49 46 43 42 40 38 39 40 43 43 43 43 43 41 42 42 42 43 44 42 42 40 41 41 40 42 46 49 49 49 48 47 47
40 46 47 45 46 47 50 49 49 50 47 44 43 42 39 38 38 40 42 42 42 42 40 42 42 42 41 43 42 42 40 39 40 39 40 38 41 42 44 47 46 47 44
38 44 45 45 46 46 49 48 48 48 46 45 44 41 39 39 37 38 37 39 40 41 42 41 42 42 40 39 40 41 40 38 39 40 38 36 36 37 41 42 42 44 39
36 42 44 44 45 46 48 48 47 46 45 46 42 41 35 33 35 37 37 38 39 39 40 41 40 40 39 40 38 38 39 38 36 37 36 40 38 36 35 36 38 36 36
34 40 43 43 44 45 47 47 46 45 45 45 43 41 36 38 37 37 39 39 38 38 38 39 38 38 36 37 37 38 38 36 36 35 34 36 37 37 33 33 33 34 34
31 38 43 43 43 44 46 46 45 44 44 44 44 43 40 38 36 38 37 36 35 35 36 35 36 36 34 35 35 36 36 36 35 34 33 32 31 31 31 31 32 31 32
35 38 42 42 42 43 44 44 44 43 43 43 42 40 40 39 39 39 36 35 33 32 34 34 34 32 33 33 33 33 33 34 33 34 31 31 30 30 30 29 29 28 29
38 39 41 42 41 42 42 42 41 40 40 40 40 40 39 38 37 36 34 32 30 29 32 33 32 31 30 31 32 30 30 33 33 33 32 29 29 30 29 28 28 27 27
39 40 40 42 41 41 42 41 38 37 38 39 39 38 38 36 35 35 33 30 29 28 30 31 30 27 28 28 28 28 29 30 30 30 30 28 28 29 29 28 28 27 26
39 40 40 41 41 41 41 42 40 37 38 38 38 37 36 36 35 33 30 29 28 28 29 28 25 25 25 25 24 24 26 26 26 24 27 27 27 27 28 26 27 26 26
40 40 40 40 41 41 40 40 39 37 38 38 37 36 35 34 32 30 29 28 29 27 26 25 23 21 22 23 24 22 23 23 25 26 25 25 25 26 25 26 25 24 24
34 40 40 40 41 40 39 39 38 37 37 36 36 35 35 33 31 29 29 29 27 27 24 24 22 21 22 22 22 21 21 22 23 24 24 23 20 25 24 24 24 23 23
31 37 39 40 40 40 39 38 38 37 37 36 35 35 36 34 31 29 29 28 27 26 23 22 21 21 22 20 20 20 20 21 22 23 24 22 22 23 22 22 22 20 18
31 32 38 40 40 40 40 38 38 38 38 35 36 37 34 32 31 28 28 27 26 25 25 24 22 22 20 18 18 18 20 20 21 23 23 22 21 21 20 19 20 18 19
32 34 35 40 41 41 40 38 38 38 36 36 37 36 34 31 30 28 27 26 26 25 25 23 23 23 20 19 23 19 20 19 20 21 20 22 20 18 18 19 20 18 18
29 28 29 34 39 40 40 40 39 38 39 37 37 33 31 32 32 30 27 26 26 26 26 24 24 22 15 21 23 23 21 21 21 21 21 21 21 18 17 16 16 18 19
24 25 30 33 35 39 41 41 41 41 39 38 33 33 34 33 33 29 26 29 30 28 28 32 29 28 24 20 21 24 25 24 24 23 23 22 22 19 18 17 15 16 17
33 36 41 42 42 42 41 43 41 40 38 35 32 32 32 31 30 32 31 32 31 31 30 28 31 27 25 19 18 21 27 25 24 24 22 22 21 18 17 18 18 18 19
38 40 42 44 43 42 42 42 41 38 35 33 32 32 30 30 30 28 28 30 30 29 28 28 26 27 24 18 16 23 26 23 22 22 19 20 19 15 15 17 16 17 17
40 37 41 43 42 43 41 40 36 34 33 33 32 31 30 30 27 29 29 30 32 28 27 26 28 26 23 17 15 23 25 23 23 21 22 15 15 14 14 17 17 15 16
38 38 38 37 39 41 39 36 34 33 33 32 31 29 29 28 28 28 31 29 28 27 26 25 25 27 24 20 15 17 25 24 22 22 22 20 13 12 13 13 15 13 18
37 36 37 38 36 39 37 34 33 33 32 30 29 29 28 28 28 28 28 28 27 26 25 25 25 26 25 19 15 16 18 17 22 21 21 16 11 11 12 13 11 12 16
36 35 35 36 36 35 35 33 32 31 30 29 28 29 29 28 28 27 26 25 25 24 25 24 24 24 26 23 15 13 12 13 21 21 14 9 7 8 12 10 12 15 19
35 34 34 34 33 33 33 32 30 30 29 29 29 28 27 28 27 24 24 24 24 23 22 22 23 24 23 23 21 18 17 14 16 11 14 12 10 9 11 13 14 15 15
35 33 33 33 32 31 31 29 30 31 30 29 28 28 28 26 24 24 23 23 29 23 23 24 25 24 23 24 21 20 20 20 18 16 17 18 17 16 15 13 11 11 11
35 32 32 31 31 30 29 29 30 30 31 29 29 29 27 27 25 23 24 24 22 19 20 21 23 24 22 17 16 13 13 11 11 15 17 17 18 15 11 11 9 8 7

GFSMW_sfc_dewp_162.txt.gz
Dewpoint
32 46 51 52 50 54 52 52 54 54 51 49 46 45 44 44 44 45 47 46 46 46 47 46 46 46 45 45 44 44 43 44 43 42 40 44 51 46 48 51 49 48 48
31 47 50 49 50 52 52 52 52 52 50 48 46 45 42 43 43 44 45 45 45 45 44 45 45 45 45 44 43 43 41 42 43 39 41 40 44 41 49 48 47 46 42
28 48 48 49 49 51 53 51 51 50 50 49 47 44 44 42 42 42 41 43 44 44 44 44 44 44 43 42 41 41 41 39 41 41 40 38 37 39 42 43 41 39 41
29 48 48 47 47 50 53 51 50 50 50 49 46 43 39 38 40 41 41 41 42 42 43 43 42 42 42 40 39 39 40 39 38 39 38 40 39 37 34 37 39 39 36
31 46 47 46 46 49 51 52 51 49 49 48 47 44 41 42 41 41 42 41 41 41 41 41 40 39 39 39 39 38 38 38 37 36 36 36 37 37 34 33 33 34 36
35 45 46 45 45 47 49 51 50 48 48 48 49 47 45 41 40 41 40 40 39 38 39 38 38 38 37 37 37 38 37 37 36 36 35 34 33 31 31 30 31 30 32
40 44 44 43 45 46 48 49 49 47 47 48 47 47 44 42 41 41 40 38 36 36 37 37 36 35 35 35 35 35 35 35 35 35 34 34 32 32 31 30 29 29 30
43 43 44 44 44 46 46 47 46 46 47 46 44 44 43 43 41 41 38 37 34 34 36 35 34 33 33 34 34 34 33 34 34 32 32 32 31 31 31 29 29 27 28
41 40 43 45 44 44 46 46 45 44 43 44 44 43 42 41 39 39 36 34 34 32 35 35 32 32 31 30 32 32 31 32 30 32 30 30 31 32 31 29 29 28 26
40 42 41 44 44 44 44 46 45 42 42 43 42 41 40 39 38 37 34 33 32 33 34 32 30 29 29 28 29 29 28 29 28 28 28 28 28 29 29 27 29 28 27
40 42 42 43 43 43 43 44 44 41 41 42 40 40 38 37 35 34 33 32 33 33 31 29 28 27 27 27 27 25 26 27 27 27 27 26 27 28 28 28 28 26 26
35 40 42 43 43 43 42 42 41 40 40 40 39 38 37 35 34 33 33 33 31 31 30 28 26 26 26 26 26 24 25 25 25 26 26 24 22 25 25 25 25 24 24
32 37 39 42 41 42 41 41 40 39 39 37 37 37 38 37 34 34 33 34 31 29 27 27 26 26 26 25 24 24 24 24 25 25 23 21 21 21 20 22 22 21 19
34 33 39 41 43 42 41 40 39 39 40 39 40 38 37 37 37 36 33 32 31 28 28 27 26 27 24 22 22 23 23 23 24 25 23 21 20 19 18 18 19 18 19
32 34 37 40 42 43 41 39 40 40 40 38 38 38 37 37 35 33 31 31 31 29 28 27 27 26 22 22 25 23 22 22 23 23 22 22 21 19 18 17 18 17 17
27 29 30 34 41 41 41 40 40 40 40 38 38 37 36 34 34 33 33 31 30 29 29 27 27 21 17 23 26 26 23 23 23 23 23 22 20 20 18 18 18 18 16
28 29 34 35 38 42 42 41 40 40 39 37 36 34 34 33 33 32 30 31 32 31 30 29 27 24 23 22 25 26 25 24 23 22 23 22 21 18 20 18 19 18 17
36 38 41 43 44 44 44 44 43 40 39 35 33 33 33 32 32 32 32 31 31 30 28 28 27 24 23 20 23 24 22 20 23 18 18 17 13 13 16 16 15 14 12
37 40 42 44 45 43 44 42 41 39 35 33 33 32 32 31 31 30 30 30 29 28 27 27 26 23 18 18 19 20 21 20 20 15 13 12 10 15 17 12 9 9 9
40 35 38 44 43 43 43 39 36 35 33 32 32 32 31 31 29 29 29 29 29 27 28 27 28 24 18 17 17 22 23 19 19 20 14 14 11 15 16 10 10 7 7
39 40 38 35 39 43 42 37 34 34 34 33 32 31 30 30 29 29 30 29 28 27 27 26 27 24 19 15 17 19 23 23 21 21 18 11 13 14 14 14 8 6 13
37 37 38 38 36 38 37 35 34 33 33 32 30 29 29 29 29 29 29 29 28 26 25 25 25 26 21 17 16 19 21 19 20 20 14 9 12 13 13 12 13 15 17
36 35 35 37 38 37 36 33 33 32 31 29 29 28 28 29 29 28 28 28 27 25 25 23 23 24 23 19 16 15 16 19 20 14 14 10 9 10 14 12 14 16 16
35 34 35 36 35 35 35 34 32 31 30 28 27 28 27 28 29 29 28 27 25 25 24 24 24 24 23 19 18 16 17 17 13 10 10 9 13 7 9 13 14 13 12
35 34 34 34 34 34 33 31 31 30 29 28 28 28 28 28 28 29 28 27 27 26 25 25 26 24 23 22 20 18 17 17 17 15 12 11 14 15 14 13 12 13 13
35 34 34 33 33 32 32 30 31 30 29 28 28 28 28 28 28 28 26 28 23 24 24 25 25 25 25 24 22 20 19 19 17 16 17 13 13 13 13 13 12 11 9

GFSMW_sfc_dewp_165.txt.gz
Dewpoint
47 51 53 52 54 53 54 54 53 51 49 47 46 42 42 43 44 44 45 44 44 45 44 44 44 44 43 42 41 42 41 41 41 39 40 46 42 45 50 48 45 47 46
30 50 49 52 53 51 52 52 51 49 48 47 44 42 41 42 43 44 43 43 43 43 44 43 42 43 41 40 40 40 39 40 41 37 39 38 41 40 43 42 40 39 40
32 49 48 51 51 50 51 50 50 48 48 47 45 43 42 42 41 41 41 42 43 43 43 42 41 41 41 39 38 39 38 37 38 38 39 35 35 38 40 39 37 39 39
39 47 47 50 50 50 50 50 49 48 49 46 41 39 38 39 40 40 40 40 41 42 42 41 40 40 39 38 38 38 37 37 35 36 36 36 37 35 32 36 35 35 36
44 46 45 48 50 49 49 49 49 48 48 43 40 39 39 39 41 40 39 39 39 40 39 38 37 37 38 37 36 36 36 36 34 35 34 33 35 33 33 32 31 32 33
47 46 45 46 49 49 49 49 48 48 46 45 42 41 39 39 39 39 38 38 38 38 38 36 36 36 35 36 36 35 34 35 34 34 34 32 31 30 30 29 29 28 30
46 44 44 44 46 48 48 49 48 47 45 45 44 43 39 39 39 39 39 37 36 36 35 35 34 33 33 34 34 34 34 34 33 32 31 33 31 32 30 29 28 28 30
43 43 43 44 46 47 47 46 46 46 46 46 43 42 40 41 40 40 37 36 36 34 34 33 33 32 33 33 33 33 33 31 32 29 29 30 31 31 30 28 28 26 27
41 42 43 44 45 45 45 45 45 45 44 43 41 41 39 38 38 35 34 34 34 33 34 33 32 30 30 30 31 30 30 28 30 29 27 28 28 30 29 28 29 27 25
41 44 43 43 43 44 44 43 43 42 42 41 40 39 38 37 35 32 32 32 32 33 33 30 30 30 29 29 30 28 29 28 28 28 26 26 27 28 29 27 28 27 26
40 40 42 43 43 43 43 42 41 40 40 39 38 37 36 35 34 33 31 31 33 33 30 30 28 28 27 27 26 26 28 27 27 26 25 25 26 25 25 26 27 25 25
34 39 40 42 41 42 41 41 39 40 39 38 37 36 35 34 33 32 34 35 32 32 30 28 27 28 27 26 25 25 26 25 26 24 23 22 21 21 21 22 23 21 22
34 35 39 41 42 41 41 39 39 38 38 37 37 37 36 35 35 36 36 37 35 32 29 27 27 27 27 25 25 25 25 25 24 22 21 20 19 18 18 20 20 19 19
35 33 37 41 41 41 40 39 39 39 38 38 37 37 37 37 37 37 37 36 35 31 27 28 28 28 26 25 25 24 24 24 24 23 21 20 19 18 18 17 17 17 18
32 34 38 40 42 41 40 38 39 39 38 38 38 38 38 38 37 36 36 36 34 32 31 30 27 24 24 24 25 23 23 23 23 22 21 22 22 21 19 16 17 16 18
28 31 35 40 41 40 39 38 38 39 39 38 37 38 38 36 35 35 35 34 34 34 30 29 24 23 21 27 29 24 23 23 23 23 21 20 21 21 19 19 18 18 13
32 37 40 40 41 41 40 39 39 39 39 36 37 36 36 34 33 33 32 33 32 31 28 26 24 24 25 28 27 26 24 22 20 20 22 19 18 18 20 20 20 16 17
40 41 42 43 43 42 42 41 41 40 38 36 35 35 34 33 33 32 32 32 31 29 27 25 24 23 24 26 25 24 21 17 12 13 12 9 8 8 15 16 12 5 6
37 38 39 40 41 41 41 41 39 38 35 34 35 34 33 32 32 31 31 30 30 29 27 25 22 20 18 24 25 21 17 12 8 10 8 5 3 16 20 8 4 -2 2
35 34 35 41 40 39 38 36 35 35 34 34 34 33 33 32 31 30 29 29 29 28 27 25 22 21 17 21 23 23 16 13 9 6 7 16 8 16 17 5 1 -1 2
37 38 35 33 34 40 38 35 33 33 33 33 33 32 32 31 30 30 30 29 28 27 26 25 23 20 16 13 22 24 14 17 15 12 3 3 15 15 15 14 3 4 5
38 39 36 34 34 37 37 34 34 33 33 32 32 31 31 30 30 29 29 29 27 26 25 25 22 19 9 17 20 24 21 21 18 12 2 8 14 15 14 11 16 18 10
36 37 37 35 36 37 37 34 33 33 32 31 30 30 29 30 30 28 28 27 27 25 24 23 21 19 15 11 20 20 21 23 13 11 12 13 13 13 13 15 16 10 8
37 36 36 34 35 34 35 34 33 32 31 29 29 28 28 28 29 28 28 27 26 25 24 23 22 20 18 13 12 13 18 18 15 15 12 11 12 6 4 9 10 7 5
37 35 36 34 33 34 34 33 32 31 29 28 27 27 28 27 27 27 27 27 28 26 25 23 23 21 18 16 16 14 15 10 11 12 10 9 11 10 10 9 9 9 10
35 34 34 34 33 33 32 32 31 30 29 27 27 27 27 27 27 27 27 29 27 28 28 27 26 25 23 22 20 16 17 18 18 14 12 12 12 14 14 12 11 10 9